This demonstration page uses our WeatherBlox Daily Observations layout. Learn more.

Left ArrowRight Arrow

Hourly Observations for July 10, 2017

Temp ( °F °C ) Dew Point ( °F °C ) Humidity (%) Winds ( mph kmh ) Pressure ( in mb ) Visibility ( mi km ) Precip ( " mm )
12:53 am 00:53 Clear 79 26.1 63 17.2 58 58 SSW 9 15 29.80 1009 10 16 0.00 0.00
1:53 am 01:53 Clear 78 25.6 62 16.7 58 58 SSW 8 13 29.78 1008 10 16 0.00 0.00
2:53 am 02:53 Clear 75 23.9 62 16.7 64 64 SW 6 9 29.80 1009 10 16 0.00 0.00
3:53 am 03:53 Clear 73 22.8 62 16.7 69 69 SW 7 11 29.80 1009 10 16 0.00 0.00
4:53 am 04:53 Clear 73 22.8 61 16.1 66 66 SW 6 9 29.79 1009 10 16 0.00 0.00
5:53 am 05:53 Clear 72 22.2 61 16.1 68 68 SW 5 7 29.80 1009 10 16 0.00 0.00
6:53 am 06:53 Sunny 68 20 62 16.7 81 81 undefined N/A 29.83 1010 10 16 0.00 0.00
7:53 am 07:53 Sunny 75 23.9 63 17.2 66 66 Calm 29.82 1010 10 16 0.00 0.00
8:53 am 08:53 Sunny 79 26.1 64 17.8 60 60 WSW 3 6 29.82 1010 10 16 0.00 0.00
9:53 am 09:53 Sunny 83 28.3 64 17.8 53 53 W 6 9 29.83 1010 10 16 0.00 0.00
10:53 am 10:53 Sunny 85 29.4 66 18.9 53 53 N 7 11 29.84 1010 10 16 0.00 0.00
11:53 am 11:53 Sunny 86 30 65 18.3 49 49 Calm 29.83 1010 10 16 0.00 0.00
12:53 pm 12:53 Sunny 89 31.7 67 19.4 48 48 NNW 3 6 29.83 1010 10 16 0.00 0.00
1:53 pm 13:53 Sunny 91 32.8 67 19.4 45 45 ENE 9 15 29.83 1010 10 16 0.00 0.00
2:53 pm 14:53 Sunny 92 33.3 70 21.1 49 49 NE 9 15 29.83 1010 10 16 0.00 0.00
3:53 pm 15:53 Sunny 92 33.3 70 21.1 49 49 E 12 19 29.82 1010 10 16 0.00 0.00
4:53 pm 16:53 Sunny 91 32.8 72 22.2 54 54 E 10 17 29.82 1010 10 16 0.00 0.00
5:53 pm 17:53 Sunny 90 32.2 72 22.2 56 56 ENE 13 20 29.80 1009 10 16 0.00 0.00
6:53 pm 18:53 Sunny 88 31.1 73 22.8 61 61 E 12 19 29.79 1009 10 16 0.00 0.00
7:53 pm 19:53 Sunny 87 30.6 73 22.8 63 63 E 9 15 29.78 1009 10 16 0.00 0.00
8:53 pm 20:53 Sunny 84 28.9 74 23.3 72 72 E 8 13 29.78 1009 10 16 0.00 0.00
9:53 pm 21:53 Clear 81 27.2 74 23.3 79 79 E 8 13 29.80 1009 10 16 0.00 0.00
10:53 pm 22:53 Clear 80 26.7 73 22.8 79 79 ESE 8 13 29.78 1009 10 16 0.00 0.00
11:53 pm 23:53 Clear 77 25 73 22.8 88 88 VRB 5 7 29.80 1009 10 16 0.00 0.00

Powered by AerisWeather